Location: Poughquag
(41.6090°N, 73.6820°W)
Time: 13:47:15
(UTC-05:00)

SR - Visible Passes

Search period start: 26 February 2020 00:00
Search period end: 07 March 2020 00:00
Orbit: 575 x 880 km, 66.7° (Epoch: 25 February)

Date Brightness Start Highest point End Pass type
(mag) Time Alt. Az. Time Alt. Az. Time Alt. Az.
29 Feb ? 20:43:48 10° N 20:44:14 11° N 20:44:14 11° N visible
01 Mar ? 19:55:51 10° NNE 19:55:59 10° NNE 19:55:59 10° NNE visible
01 Mar ? 21:35:16 10° NNW 21:35:23 11° NNW 21:35:23 11° NNW visible
02 Mar ? 20:45:56 10° N 20:47:09 15° N 20:47:09 15° N visible
03 Mar ? 19:56:56 10° N 19:58:56 15° NNE 19:58:56 15° NNE visible
03 Mar ? 21:37:55 10° NNW 21:38:21 12° NNW 21:38:21 12° NNW visible
04 Mar ? 20:48:20 10° NNW 20:50:11 21° NNW 20:50:11 21° NNW visible
05 Mar ? 19:59:00 10° N 20:02:03 23° NNE 20:02:03 23° NNE visible
05 Mar ? 21:40:51 10° NW 21:41:28 13° NW 21:41:28 13° NW visible
06 Mar ? 19:10:05 10° N 19:13:07 15° NE 19:13:57 15° NE visible
06 Mar ? 20:50:57 10° NNW 20:53:22 28° NNW 20:53:22 28° NNW visible
